Regional Weather Roundup
Issued by NWS Boston, MA

Current Version | Previous Version | Text Only | Print | Product List | Glossary Off
Versions: 1 2 3 4 5 6 7 8 9 10 11 12 13 14 15 16 17 18 19 20 21 22 23 24 25 26 27 28 29 30 31 32 33 34 35 36 37 38 39 40 41 42 43 44 45 46 47 48 49 50
000 ASUS41 KBOX 210210 RWRBOX REGIONAL WEATHER ROUNDUP NATIONAL WEATHER SERVICE BOSTON/NORTON MA 1000 PM EDT FRI JUL 20 2018 NOTE: "FAIR" INDICATES FEW OR NO CLOUDS BELOW 12,000 FEET WITH NO SIGNIFICANT WEATHER AND/OR OBSTRUCTIONS TO VISIBILITY. MAZALL-210300- EASTERN MASSACHUSETTS CITY SKY/WX TMP DP RH WIND PRES REMARKS BOSTON FAIR 72 60 66 S10 30.16R BEVERLY FAIR 66 59 78 SE7 30.16S LAWRENCE FAIR 70 58 65 E5 30.18S BEDFORD FAIR 68 57 68 S5 30.15R BLUE HILL N/A 67 59 75 S9 30.17R NORWOOD FAIR 68 61 78 CALM 30.16R MARSHFIELD FAIR 64 59 82 CALM 30.17R PLYMOUTH FAIR 61 56 83 SE3 30.18R TAUNTON FAIR 59 56 89 CALM 30.17R NEW BEDFORD FAIR 62 58 86 CALM 30.17R $$ MAZALL-210300- CAPE COD AND THE ISLANDS CITY SKY/WX TMP DP RH WIND PRES REMARKS FALMOUTH FAIR 59 50 72 CALM 30.19S HYANNIS FAIR 58 51 78 CALM 30.17R CHATHAM FAIR 61 55 81 CALM 30.19R PROVINCETOWN FAIR 58 50 75 S3 30.19R NANTUCKET FAIR 58 32 37 CALM 30.17S MARTHAS VNYRD FAIR 52 49 89 CALM 30.18R $$ MAZALL-210300- CENTRAL AND WESTERN MASSACHUSETTS CITY SKY/WX TMP DP RH WIND PRES REMARKS WORCESTER NOT AVBL FITCHBURG FAIR 70 62 76 S5 30.17R ORANGE FAIR 73 60 63 S5 30.16R SPRINGFIELD CLEAR 71 57 62 S6 30.13R WESTFIELD FAIR 69 59 70 S5 30.13R NORTH ADAMS FAIR 67 58 72 CALM 30.13R PITTSFIELD FAIR 71 57 61 S6 30.14R $$ RIZALL-210300- RHODE ISLAND CITY SKY/WX TMP DP RH WIND PRES REMARKS PROVIDENCE FAIR 68 60 75 S6 30.17S NEWPORT FAIR 64 58 80 CALM 30.17R BLOCK ISLAND FAIR 67 59 75 SE3 30.17S SMITHFIELD FAIR 65 62 90 S3 30.18R WESTERLY FAIR 70 64 81 SE3 30.17R $$ CTZALL-210300- CONNECTICUT CITY SKY/WX TMP DP RH WIND PRES REMARKS BRADLEY INTL FAIR 72 56 57 S9 30.13R HARTFORD FAIR 71 57 61 SE6 30.14R BRIDGEPORT FAIR 73 59 61 S7 30.14R DANBURY FAIR 67 54 63 S3 30.16R GROTON FAIR 68 64 87 SE6 30.16R NEW HAVEN FAIR 72 59 63 S8 30.15R CHESTER FAIR 66 61 82 CALM 30.17R MERIDEN FAIR 66 59 78 CALM 30.14R WILLIMANTIC FAIR 69 61 75 S3 30.16R OXFORD FAIR 65 56 72 S3 30.17R $$ MEZ002-015-021-024-NHZ003-005-008-011-012-014-VTZ005-008-210300- NORTHERN NEW ENGLAND CITY SKY/WX TMP DP RH WIND PRES REMARKS PORTLAND ME FAIR 66 62 87 S3 30.19R BANGOR ME FAIR 67 59 75 S6 30.18S CONCORD NH FAIR 67 58 72 E6 30.17R MANCHESTER NH FAIR 70 57 63 CALM 30.15R NASHUA NH FAIR 71 60 68 SE5 30.17R PORTSMOUTH NH CLEAR 64 59 84 SE7 30.16R JAFFREY NH FAIR 70 57 63 CALM 30.18R KEENE NH FAIR 68 58 70 CALM 30.15R BURLINGTON VT FAIR 76 54 46 CALM 30.07R MT. WASHINGTON PTCLDY 57 39 51 SE9 N/A $$ NYZ052-076-210300- EASTERN NEW YORK CITY SKY/WX TMP DP RH WIND PRES REMARKS ALBANY FAIR 78 57 48 S6 30.10R NEW YORK CITY MOCLDY 75 57 53 S9 30.12S $$ ANZALL-210300- MARINE OBSERVATIONS STATION/POSITION TIME TEMP WIND PRES VSBY WAVE AIR SEA DIR/SP/G HT/PER (UTC) (F) (DEG/KT/KT) (MB) (MI) (FT/S) BOSTON BUOY 0150 68 68 140/ 12/ 12 1021.1R 2/ 3 BUZZARDS BAY 0100 69 150/ 5/ 5 1022.1R NANTUCKET SOUND 0150 69 75 130/ 2/ 6 1021.5R 1 MASS BAY-STELLWA 0104 68 67 140/ 10/ 12 1020.0R 2/ 8 ISLE OF SHOALS 0100 68 160/ 11/ 11 1021.2R S OF BLOCK IS 0143 73 N/A 2/ 8 $$ ......................KEY......................... SKY/WX - SKY CONDITION/PRESENT WEATHER TMP - TEMPERATURE IN FAHRENHEIT DWPT - DEWPOINT IN FAHRENHEIT RH - RELATIVE HUMIDITY IN PERCENT WIND - DIRECTION AND SPEED IN MPH PRES - MEAN SEA LEVEL PRESSURE IN INCHES OF HG WCI - WIND CHILL INDEX VSB - VISIBILITY IN MILES HX - HEAT INDEX TC - TEMPERATURE IN CELSIUS VRB - VARIABLE WIND DIRECTION N/A - NOT AVAILABLE

USA.gov is the U.S. government's official web portal to all federal, state and local government web resources and services.